EDT,Max TemperatureF,Mean TemperatureF,Min TemperatureF,Max Dew PointF,MeanDew PointF,Min DewpointF,Max Humidity, Mean Humidity, Min Humidity, Max Sea Level PressureIn, Mean Sea Level PressureIn, Min Sea Level PressureIn, Max VisibilityMiles, Mean VisibilityMiles, Min VisibilityMiles, Max Wind SpeedMPH, Mean Wind SpeedMPH, Max Gust SpeedMPH,PrecipitationIn, CloudCover, Events, WindDirDegrees
2013-7-1,78,74,71,72,70,68,94,88,78,30.05,29.98,29.90,10,8,4,20,13,25,0.33,6,Thunderstorm,179
2013-7-2,82,76,71,73,70,68,94,85,70,30.23,30.15,30.06,10,9,5,18,13,25,0.01,4,,185
2013-7-3,82,76,71,75,71,66,94,83,70,30.29,30.25,30.21,10,9,1,18,9,24,0.24,1,,180
2013-7-4,86,78,71,73,71,70,94,80,66,30.30,30.26,30.23,10,10,7,15,8,22,0.00,1,,192
2013-7-5,87,79,71,73,71,70,94,77,58,30.27,30.23,30.17,10,10,10,15,9,20,0.00,0,,199
2013-7-6,91,83,75,75,73,70,94,72,52,30.20,30.16,30.09,10,10,10,14,10,17,0.00,0,,223
2013-7-7,91,83,75,73,72,70,89,71,55,30.13,30.07,30.01,10,10,10,16,10,21,0.00,0,,225
2013-7-8,86,80,73,72,69,66,88,72,58,30.11,30.08,30.04,10,10,4,15,7,17,0.00,2,,241
2013-7-9,87,80,73,73,71,68,94,78,62,30.12,30.08,30.04,10,10,9,13,8,16,0.00,1,Thunderstorm,201
2013-7-10,87,79,71,75,72,66,94,79,62,30.05,29.96,29.89,10,9,5,13,7,21,0.00,2,Thunderstorm,197
2013-7-11,78,74,71,72,69,66,94,84,78,29.93,29.90,29.87,10,9,2,13,8,20,0.00,2,,214
2013-7-12,73,70,68,70,68,64,100,90,83,30.04,29.95,29.90,10,5,0,17,5,26,0.00,6,,101
2013-7-13,82,74,66,75,70,64,94,85,70,30.31,30.19,30.04,10,7,0,16,7,23,0.00,5,,150
2013-7-14,86,80,73,73,72,70,94,83,62,30.37,30.33,30.30,10,8,0,13,6,,0.00,3,,205
2013-7-15,89,81,73,73,72,70,94,77,55,30.32,30.25,30.18,10,10,0,12,7,,0.00,0,,246
2013-7-16,89,82,73,75,70,66,89,68,51,30.20,30.18,30.16,10,10,5,10,6,,0.00,0,,332
2013-7-17,91,81,71,75,70,66,94,69,43,30.20,30.16,30.11,10,10,3,9,2,,0.00,0,,185
2013-7-18,93,85,77,75,73,70,89,70,52,30.12,30.07,30.00,10,10,7,13,6,,0.09,0,,231
2013-7-19,91,84,78,75,74,70,83,71,58,30.03,29.97,29.88,10,9,7,16,10,20,0.00,1,,208
2013-7-20,91,86,80,75,74,72,79,71,55,29.92,29.87,29.80,10,10,2,15,12,22,0.00,0,Thunderstorm,227
2013-7-21,87,79,71,73,71,66,94,79,58,29.96,29.92,29.89,10,9,2,13,6,17,0.48,1,Thunderstorm,227
2013-7-22,84,78,71,73,72,70,94,83,66,29.94,29.89,29.80,10,9,4,13,4,20,0.00,2,,156
2013-7-23,87,80,73,75,72,70,94,80,62,29.79,29.69,29.63,10,9,5,15,8,20,0.10,3,Thunderstorm,234
2013-7-24,82,78,73,72,69,64,88,73,61,29.89,29.76,29.67,10,9,6,13,7,20,0.00,2,,292
2013-7-25,73,68,62,64,59,54,88,75,60,30.04,29.95,29.88,10,10,10,20,11,29,0.01,6,,17
2013-7-26,78,70,62,64,61,57,83,73,54,30.08,30.04,29.99,10,10,10,12,8,,0.00,3,,305
2013-7-27,80,73,66,66,64,63,94,76,54,30.09,30.04,29.96,10,9,5,16,6,16,0.00,1,,168
2013-7-28,80,73,66,72,68,64,94,83,70,29.99,29.96,29.93,10,10,8,17,7,24,0.00,3,,160
2013-7-29,80,73,64,70,63,54,94,70,44,30.15,30.05,29.96,10,10,7,12,5,,0.00,3,,292
2013-7-30,80,72,64,61,57,54,83,59,39,30.20,30.17,30.13,10,10,10,13,4,,0.00,0,,265
2013-7-31,82,72,62,66,62,59,88,72,54,30.18,30.13,30.06,10,10,10,15,3,,0.00,2,,162